When you browse on this site, cookies collect data to enhance your experience and personalize the content and advertising you see.
Visit our Privacy Policy to learn more. By continuing to use the site, you agree to this use of cookies and data.
  • In Hungary
  • List of Countries
  • For 7 days
  • Water Temperature
  • Satellite Maps
  • Weather Map
  • News
  • Weather Widgets
  • user-avatar
    Login

    Hourly Weather Chhibramau

    Today, 19 January, Saturday

    Time Temperature Precipitation Wind Pressure Humidity
    00:00 +14°C° 0 mm 2 mps 748 mmHg 60%
    01:00 +14°C° 0 mm 2 mps 748 mmHg 62%
    02:00 +13°C° 0 mm 1 mps 748 mmHg 64%
    03:00 +13°C° 0 mm 1 mps 748 mmHg 64%
    04:00 +13°C° 0 mm 1 mps 748 mmHg 65%
    05:00 +12°C° 0 mm 2 mps 748 mmHg 66%
    06:00 +13°C° 0 mm 1 mps 748 mmHg 63%
    07:00 +14°C° 0 mm 1 mps 749 mmHg 61%
    08:00 +14°C° 0 mm 1 mps 749 mmHg 58%
    09:00 +18°C° 0 mm 1 mps 749 mmHg 51%
    10:00 +20°C° 0 mm 1 mps 749 mmHg 44%
    11:00 +21°C° 0 mm 2 mps 750 mmHg 36%
    12:00 +24°C° 0 mm 2 mps 749 mmHg 34%
    13:00 +25°C° 0 mm 2 mps 749 mmHg 32%
    14:00 +26°C° 0 mm 2 mps 748 mmHg 30%
    15:00 +24°C° 0 mm 2 mps 748 mmHg 34%
    16:00 +21°C° 0 mm 2 mps 748 mmHg 39%
    17:00 +21°C° 0 mm 1 mps 747 mmHg 45%
    18:00 +20°C° 0 mm 1 mps 748 mmHg 46%
    19:00 +19°C° 0 mm 1 mps 748 mmHg 47%
    20:00 +18°C° 0 mm 1 mps 748 mmHg 48%
    21:00 +18°C° 0 mm 1 mps 748 mmHg 50%
    22:00 +16°C° 0 mm 1 mps 748 mmHg 51%
    23:00 +16°C° 0 mm 1 mps 748 mmHg 53%

    Tomorrow, 20 January, Sunday

    Time Temperature Precipitation Wind Pressure Humidity
    00:00 +16°C° 0 mm 1 mps 748 mmHg 54%
    01:00 +15°C° 0 mm 1 mps 748 mmHg 54%
    02:00 +15°C° 0 mm 1 mps 748 mmHg 55%
    03:00 +15°C° 0 mm 1 mps 748 mmHg 56%
    04:00 +14°C° 0 mm 1 mps 748 mmHg 56%
    05:00 +14°C° 0 mm 1 mps 748 mmHg 57%
    06:00 +15°C° 0 mm 1 mps 749 mmHg 56%
    07:00 +16°C° 0 mm 1 mps 749 mmHg 55%
    08:00 +18°C° 0 mm 1 mps 750 mmHg 54%
    09:00 +20°C° 0 mm 1 mps 750 mmHg 49%
    10:00 +22°C° 0 mm 1 mps 750 mmHg 44%
    11:00 +24°C° 0 mm 1 mps 750 mmHg 39%
    12:00 +25°C° 0 mm 1 mps 749 mmHg 37%
    13:00 +26°C° 0 mm 1 mps 749 mmHg 36%
    14:00 +27°C° 0 mm 1 mps 748 mmHg 35%
    15:00 +26°C° 0 mm 1 mps 748 mmHg 39%
    16:00 +22°C° 0 mm 0 mps 747 mmHg 44%
    17:00 +21°C° 0 mm 0 mps 747 mmHg 48%
    18:00 +20°C° 0 mm 0 mps 747 mmHg 50%
    19:00 +21°C° 0 mm 1 mps 748 mmHg 51%
    20:00 +20°C° 0 mm 1 mps 748 mmHg 53%
    21:00 +19°C° 0 mm 1 mps 748 mmHg 54%
    22:00 +19°C° 0 mm 1 mps 748 mmHg 56%
    23:00 +19°C° 0 mm 1 mps 748 mmHg 57%

    Day after tomorrow, 21 January, Monday

    Time Temperature Precipitation Wind Pressure Humidity
    00:00 +17°C° 0 mm 2 mps 748 mmHg 58%
    01:00 +17°C° 0 mm 2 mps 747 mmHg 59%
    02:00 +17°C° 0 mm 2 mps 747 mmHg 60%
    03:00 +16°C° 0 mm 2 mps 747 mmHg 62%
    04:00 +16°C° 0 mm 2 mps 747 mmHg 63%
    05:00 +15°C° 0 mm 2 mps 747 mmHg 65%
    06:00 +16°C° 0 mm 2 mps 747 mmHg 65%
    07:00 +16°C° 0 mm 2 mps 748 mmHg 64%
    08:00 +17°C° 0 mm 2 mps 749 mmHg 64%
    09:00 +19°C° 0 mm 3 mps 749 mmHg 58%
    10:00 +21°C° 0 mm 3 mps 749 mmHg 52%
    11:00 +25°C° 0 mm 4 mps 749 mmHg 46%
    12:00 +25°C° 0 mm 4 mps 748 mmHg 44%
    13:00 +26°C° 0 mm 4 mps 747 mmHg 43%
    14:00 +27°C° 0 mm 5 mps 746 mmHg 41%
    15:00 +26°C° 0 mm 4 mps 746 mmHg 47%
    16:00 +23°C° 0 mm 4 mps 745 mmHg 52%
    17:00 +22°C° 0 mm 3 mps 745 mmHg 57%
    18:00 +21°C° 0.1 mm 3 mps 745 mmHg 59%
    19:00 +20°C° 0.1 mm 3 mps 745 mmHg 60%
    20:00 +19°C° 0.1 mm 4 mps 746 mmHg 61%
    21:00 +19°C° 0.2 mm 4 mps 746 mmHg 65%
    22:00 +17°C° 0.2 mm 5 mps 746 mmHg 68%
    23:00 +16°C° 0.2 mm 5 mps 746 mmHg 72%

    22 January, Tuesday

    Time Temperature Precipitation Wind Pressure Humidity
    00:00 +16°C° 0.4 mm 5 mps 746 mmHg 74%
    01:00 +16°C° 0.4 mm 5 mps 746 mmHg 77%
    02:00 +17°C° 0.4 mm 4 mps 746 mmHg 80%
    03:00 +15°C° 0.6 mm 4 mps 746 mmHg 81%
    04:00 +15°C° 0.6 mm 4 mps 746 mmHg 83%
    05:00 +15°C° 0.6 mm 4 mps 746 mmHg 84%
    06:00 +15°C° 0.9 mm 4 mps 746 mmHg 82%
    07:00 +17°C° 0.9 mm 4 mps 747 mmHg 80%
    08:00 +16°C° 0.9 mm 5 mps 748 mmHg 79%
    09:00 +17°C° 0.8 mm 5 mps 748 mmHg 73%
    10:00 +19°C° 0.8 mm 6 mps 748 mmHg 68%
    11:00 +21°C° 0.8 mm 6 mps 748 mmHg 63%
    12:00 +22°C° 0.3 mm 6 mps 748 mmHg 61%
    13:00 +22°C° 0.3 mm 5 mps 747 mmHg 58%
    14:00 +23°C° 0.3 mm 4 mps 746 mmHg 55%
    15:00 +22°C° 0 mm 4 mps 746 mmHg 60%
    16:00 +21°C° 0 mm 3 mps 746 mmHg 64%
    17:00 +20°C° 0 mm 3 mps 746 mmHg 69%
    18:00 +19°C° 0 mm 3 mps 747 mmHg 70%
    19:00 +18°C° 0 mm 3 mps 748 mmHg 71%
    20:00 +17°C° 0 mm 4 mps 748 mmHg 73%
    21:00 +17°C° 0 mm 3 mps 748 mmHg 74%
    22:00 +17°C° 0 mm 3 mps 748 mmHg 76%
    23:00 +16°C° 0 mm 2 mps 748 mmHg 77%

    23 January, Wednesday

    Time Temperature Precipitation Wind Pressure Humidity
    00:00 +16°C° 0 mm 2 mps 748 mmHg 74%
    01:00 +17°C° 0 mm 2 mps 748 mmHg 71%
    02:00 +17°C° 0 mm 2 mps 747 mmHg 69%
    03:00 +16°C° 0.1 mm 3 mps 747 mmHg 69%
    04:00 +16°C° 0.1 mm 3 mps 747 mmHg 69%
    05:00 +14°C° 0.1 mm 3 mps 747 mmHg 70%
    06:00 +16°C° 0 mm 3 mps 748 mmHg 69%
    07:00 +16°C° 0 mm 3 mps 748 mmHg 69%
    08:00 +15°C° 0 mm 4 mps 749 mmHg 69%
    09:00 +18°C° 0 mm 4 mps 749 mmHg 63%
    10:00 +20°C° 0 mm 4 mps 750 mmHg 58%
    11:00 +21°C° 0 mm 4 mps 750 mmHg 52%
    12:00 +22°C° 0 mm 4 mps 749 mmHg 50%
    13:00 +23°C° 0 mm 4 mps 748 mmHg 49%
    14:00 +25°C° 0 mm 3 mps 748 mmHg 47%
    15:00 +24°C° 0 mm 3 mps 747 mmHg 52%
    16:00 +22°C° 0 mm 3 mps 747 mmHg 57%
    17:00 +20°C° 0 mm 3 mps 747 mmHg 62%
    18:00 +19°C° 0 mm 3 mps 748 mmHg 64%
    19:00 +18°C° 0 mm 3 mps 748 mmHg 66%
    20:00 +17°C° 0 mm 4 mps 748 mmHg 67%
    21:00 +17°C° 0 mm 3 mps 749 mmHg 67%
    22:00 +16°C° 0 mm 3 mps 749 mmHg 66%
    23:00 +16°C° 0 mm 3 mps 749 mmHg 66%

    24 January, Thursday

    Time Temperature Precipitation Wind Pressure Humidity
    00:00 +16°C° 0 mm 3 mps 749 mmHg 65%
    01:00 +15°C° 0 mm 2 mps 749 mmHg 65%
    02:00 +15°C° 0 mm 2 mps 748 mmHg 64%
    03:00 +15°C° 0 mm 2 mps 748 mmHg 65%
    04:00 +15°C° 0 mm 2 mps 748 mmHg 67%
    05:00 +14°C° 0 mm 2 mps 748 mmHg 68%
    06:00 +15°C° 0 mm 2 mps 749 mmHg 67%
    07:00 +16°C° 0 mm 2 mps 750 mmHg 67%
    08:00 +16°C° 0 mm 2 mps 750 mmHg 66%
    09:00 +18°C° 0 mm 2 mps 750 mmHg 61%
    10:00 +20°C° 0 mm 3 mps 751 mmHg 56%
    11:00 +22°C° 0 mm 3 mps 751 mmHg 51%
    12:00 +21°C° 0 mm 2 mps 750 mmHg 53%
    13:00 +21°C° 0 mm 2 mps 749 mmHg 54%
    14:00 +21°C° 0 mm 2 mps 748 mmHg 56%
    15:00 +21°C° 0 mm 2 mps 748 mmHg 58%
    16:00 +20°C° 0 mm 2 mps 747 mmHg 61%
    17:00 +19°C° 0 mm 2 mps 747 mmHg 63%
    18:00 +19°C° 0 mm 1 mps 747 mmHg 64%
    19:00 +19°C° 0 mm 1 mps 748 mmHg 65%
    20:00 +18°C° 0 mm 1 mps 748 mmHg 66%
    21:00 +16°C° 0 mm 1 mps 748 mmHg 66%
    22:00 +16°C° 0 mm 2 mps 748 mmHg 67%
    23:00 +16°C° 0 mm 2 mps 748 mmHg 68%
    Show more